Wind_Speed
41 39 34 29 27 24 22 26 26 20 20 18 16 13 13 12 11 10 7 6 7 9 10 11 14 14 14 14 15 15 15 15 14 14 18 20 20 18 18 16 19 20 24
36 41 40 35 30 29 25 24 25 28 23 21 19 16 15 16 16 14 12 11 11 9 11 12 13 14 14 14 14 14 15 15 17 19 19 22 21 19 18 16 18 20 24
31 34 38 40 37 33 30 25 24 25 27 26 24 20 18 18 18 17 14 12 13 14 13 14 13 13 14 13 14 14 13 15 16 18 20 18 21 19 19 18 20 21 21
22 27 32 34 37 37 34 31 28 26 27 30 30 27 23 21 21 20 19 16 14 15 14 14 14 14 15 15 16 17 16 16 15 18 18 18 17 19 18 17 20 20 26
21 21 25 27 28 31 36 37 34 32 29 29 31 31 30 27 26 25 22 20 17 15 15 12 11 11 12 14 16 16 17 18 16 17 17 17 16 15 16 18 18 22 21
20 25 26 26 26 26 27 30 34 35 35 34 32 33 34 35 32 28 26 24 22 20 19 18 16 15 14 13 14 15 17 19 21 20 19 18 21 19 17 17 23 22 18
13 18 20 25 28 28 27 27 29 31 32 36 36 35 35 37 37 35 31 29 26 25 23 23 22 21 18 18 17 17 19 20 22 22 24 22 21 19 20 23 22 24 25
8 13 17 22 23 25 28 29 31 31 32 33 35 35 36 35 37 37 36 35 34 32 31 29 27 26 25 23 22 23 23 24 24 24 25 23 22 20 21 23 26 27 27
16 9 12 21 27 26 25 27 28 29 31 34 34 36 37 36 34 34 36 38 40 40 37 36 35 33 29 26 26 28 27 27 26 25 25 24 23 23 23 25 26 19 19
15 19 19 11 16 24 27 26 21 25 29 32 35 37 38 38 36 34 33 35 39 43 43 42 41 39 35 31 30 30 32 30 28 28 26 26 28 28 26 27 27 25 19
9 11 16 20 17 17 22 23 20 18 23 24 32 36 37 37 37 37 36 37 39 38 39 40 43 41 38 37 34 34 35 29 29 31 31 31 31 32 30 29 26 26 25
17 9 11 13 18 18 15 22 21 21 24 22 20 22 28 31 32 33 35 37 38 40 41 36 40 41 38 36 35 36 34 31 32 34 33 33 32 31 29 27 26 26 26
20 21 14 9 12 22 16 12 20 26 25 26 26 26 23 26 31 29 28 29 31 33 35 37 39 39 38 36 35 35 32 33 35 36 35 34 31 30 29 28 29 28 28
25 22 23 18 13 17 26 16 16 20 29 33 28 27 25 26 31 33 33 30 29 32 32 31 31 34 36 37 36 36 37 37 37 37 36 32 29 30 32 29 29 27 26
25 26 23 24 24 17 23 23 17 19 22 32 32 30 25 29 32 34 33 32 31 31 31 31 33 35 37 38 38 38 34 37 39 39 38 35 32 31 32 31 31 30 25
24 24 24 25 26 25 22 26 22 23 22 26 35 34 34 35 33 29 29 28 28 26 28 32 36 38 40 39 40 38 37 36 35 34 34 33 32 30 28 28 28 27 26
25 24 25 25 27 27 26 25 25 27 28 23 23 25 31 34 32 27 24 23 24 25 30 35 37 39 41 40 39 39 38 31 31 31 31 32 32 30 30 30 31 32 34
27 25 24 27 27 27 28 26 29 30 32 28 20 20 22 27 30 30 26 24 26 27 30 33 35 38 37 37 35 34 32 30 28 29 30 31 29 29 30 31 30 31 31
27 27 24 26 27 27 27 28 29 29 30 31 30 18 19 19 22 28 27 27 28 29 30 32 31 33 34 33 31 30 29 28 28 29 28 28 29 29 29 28 27 25 23
25 25 24 27 28 26 26 26 25 26 31 28 28 22 18 17 19 20 18 22 23 21 25 28 32 32 34 32 32 31 28 28 29 30 30 28 28 28 29 29 28 27 25
23 24 25 25 25 23 24 26 25 27 29 25 26 22 19 19 20 23 24 24 24 23 20 19 24 32 34 35 34 34 33 34 34 33 33 32 32 32 30 29 29 29 30
21 22 23 24 23 23 23 25 25 25 26 27 24 21 21 19 22 24 30 35 32 21 23 23 37 38 37 35 37 37 36 38 35 32 31 29 27 27 29 31 31 29 30
21 22 21 22 22 20 20 23 23 24 25 26 23 20 20 18 17 23 27 26 30 30 25 28 29 27 26 24 27 31 28 27 27 26 26 26 25 25 26 28 29 30 32
19 20 19 21 23 22 20 21 22 22 24 26 21 20 20 18 17 18 19 20 21 20 20 18 18 17 16 14 14 15 13 13 12 12 13 17 19 17 16 18 22 22 24
21 21 21 20 22 23 21 20 21 21 23 24 18 17 18 16 16 15 14 15 12 12 12 12 12 12 13 11 10 8 7 6 5 4 5 4 7 7 7 6 6 8 12
13 15 15 16 18 18 18 18 18 19 19 18 14 12 12 13 13 13 12 12 13 14 14 15 13 13 13 11 9 9 8 6 5 7 8 10 10 10 8 9 11 11 11
Wind_Direction
237 235 233 235 237 239 242 236 235 233 228 227 226 238 245 237 232 231 233 244 257 261 256 254 252 255 263 273 279 285 290 294 294 298 309 316 323 328 331 332 335 340 342
241 239 238 238 238 240 242 240 238 238 236 231 229 234 235 234 236 241 246 258 262 270 265 263 257 256 259 269 275 281 281 287 292 298 305 312 319 325 329 328 328 334 334
250 247 244 243 240 240 241 244 241 240 238 233 233 235 233 229 233 238 244 257 270 260 266 260 251 256 255 261 270 280 281 283 289 294 301 306 315 321 326 328 327 331 340
242 250 251 248 246 245 245 244 246 244 243 239 237 238 237 234 234 239 247 254 269 255 254 258 253 254 255 258 267 274 279 281 283 289 293 300 306 312 322 328 324 328 332
242 241 247 251 252 251 248 248 248 248 247 246 244 241 240 240 237 239 244 251 257 254 249 250 255 260 262 261 266 270 272 276 277 282 287 294 299 305 312 319 322 324 335
246 244 245 247 247 247 247 248 251 250 250 248 247 245 242 241 241 239 243 248 249 249 252 253 258 262 261 264 267 273 275 277 279 277 279 282 294 303 308 313 317 322 330
270 258 252 251 251 251 249 247 247 245 247 249 248 247 246 244 243 244 244 247 249 248 249 252 256 259 263 266 268 272 274 274 274 277 277 280 290 298 303 308 309 312 317
296 289 268 249 248 251 253 251 249 247 246 246 247 247 245 246 246 245 245 247 250 250 252 254 256 257 260 262 267 270 273 274 273 271 273 281 284 290 292 297 300 306 311
19 320 269 251 250 246 246 251 255 252 247 245 244 244 246 244 244 245 246 247 251 252 252 254 257 259 259 260 263 268 271 271 272 271 271 275 275 277 281 286 291 295 300
20 14 4 321 271 255 252 254 261 264 261 247 244 243 242 244 245 243 244 246 250 252 255 255 255 256 259 259 261 265 268 268 272 273 273 267 268 270 271 274 282 284 284
344 348 4 4 340 282 252 245 244 237 245 249 248 244 244 244 242 243 244 244 247 251 253 254 256 256 254 257 258 261 262 268 270 271 269 267 268 271 274 277 277 277 275
307 319 330 353 339 335 300 255 248 247 248 247 249 247 244 243 243 241 242 242 245 248 250 252 255 257 255 255 255 255 258 263 262 264 266 266 267 270 276 278 275 274 269
285 292 298 297 311 323 326 336 254 257 260 258 251 252 252 255 248 244 243 242 242 246 248 250 252 256 256 254 252 251 253 253 256 259 261 264 267 272 274 274 274 272 267
293 280 288 293 292 291 310 324 323 291 256 257 259 262 264 264 252 246 245 243 244 242 246 249 250 251 254 255 253 250 250 250 253 256 258 261 264 267 272 273 272 271 267
280 285 282 284 290 291 293 305 308 303 277 263 254 257 257 264 263 251 248 249 249 249 248 246 248 248 248 250 248 248 248 250 250 253 256 259 264 267 270 271 269 266 257
273 278 281 283 286 287 286 286 289 298 295 262 257 259 260 264 264 257 252 252 253 247 242 242 243 245 250 251 251 252 251 250 251 253 255 258 261 263 266 268 267 260 254
268 276 282 283 285 287 291 282 288 291 291 282 263 259 256 256 260 254 246 252 256 247 234 233 236 243 247 250 253 253 252 250 252 253 255 258 260 262 263 265 268 269 264
264 271 279 285 287 286 286 285 287 288 294 297 291 264 264 253 248 244 243 241 243 241 241 235 239 243 249 254 255 254 255 256 255 256 257 258 257 259 264 267 268 270 267
262 265 278 282 287 288 287 285 282 288 291 295 295 275 244 267 265 247 241 237 246 248 253 253 249 248 250 255 258 258 258 257 257 257 256 258 259 261 266 266 268 268 265
269 269 272 281 285 284 283 282 282 280 283 287 289 287 264 258 267 244 245 253 248 256 262 264 264 260 257 256 255 254 256 259 258 256 254 255 259 259 262 263 263 263 260
264 274 275 277 282 283 278 277 278 281 284 283 283 282 272 252 249 244 236 241 248 252 262 278 276 270 259 254 253 253 253 257 261 258 255 255 254 254 255 257 260 261 262
265 271 276 278 279 280 276 276 277 281 285 281 280 278 279 268 255 241 243 244 240 245 263 254 254 252 260 260 256 252 250 250 254 249 250 252 253 255 256 257 257 258 260
272 268 274 276 275 277 280 277 276 278 282 282 280 280 273 264 259 248 240 239 244 248 244 252 250 251 253 259 256 250 243 245 248 249 248 252 258 264 270 273 270 263 255
272 269 270 268 271 274 276 275 270 273 278 279 279 278 271 259 249 244 239 237 239 235 235 226 225 228 231 229 233 230 225 228 234 247 263 263 262 264 271 278 283 281 251
273 268 269 270 267 270 272 271 267 269 272 274 275 269 260 252 240 229 218 213 209 209 207 199 187 187 182 189 193 189 199 210 218 218 199 225 259 251 257 259 265 255 243
285 274 271 269 266 264 262 257 258 260 263 267 262 254 244 229 211 201 189 180 183 182 175 168 165 163 164 157 163 166 171 191 226 243 259 270 261 257 259 271 275 273 273
Height
1562 1567 1571 1575 1579 1583 1585 1588 1592 1595 1598 1601 1603 1605 1606 1608 1609 1611 1613 1614 1615 1616 1617 1618 1619 1620 1621 1622 1622 1622 1622 1621 1620 1620 1617 1615 1614 1611 1609 1606 1602 1598 1594
1556 1561 1566 1571 1575 1579 1581 1584 1588 1591 1594 1597 1600 1602 1603 1605 1607 1608 1610 1611 1612 1613 1615 1615 1616 1617 1618 1619 1619 1619 1618 1618 1617 1615 1614 1612 1611 1609 1606 1604 1601 1598 1593
1551 1556 1561 1565 1569 1573 1577 1580 1583 1586 1589 1592 1594 1597 1600 1602 1604 1605 1607 1607 1609 1610 1611 1611 1612 1613 1614 1615 1615 1615 1615 1615 1613 1612 1610 1609 1607 1605 1603 1601 1599 1596 1592
1548 1551 1554 1558 1563 1567 1572 1575 1578 1581 1584 1587 1589 1592 1595 1597 1599 1602 1603 1604 1605 1606 1607 1608 1608 1609 1610 1611 1611 1612 1611 1611 1611 1609 1608 1606 1605 1602 1600 1599 1596 1594 1589
1544 1547 1549 1553 1557 1560 1564 1568 1572 1575 1578 1581 1584 1586 1588 1591 1593 1595 1598 1600 1601 1602 1603 1604 1604 1605 1606 1606 1607 1607 1607 1607 1607 1606 1604 1603 1602 1601 1599 1596 1593 1590 1588
1540 1542 1545 1547 1549 1552 1555 1559 1563 1567 1570 1573 1575 1578 1580 1583 1586 1589 1592 1594 1596 1597 1598 1599 1600 1601 1601 1602 1602 1602 1603 1602 1601 1601 1600 1599 1596 1596 1595 1593 1590 1587 1585
1538 1540 1541 1542 1544 1546 1549 1551 1553 1557 1561 1564 1567 1570 1571 1574 1578 1581 1585 1587 1589 1590 1592 1594 1595 1595 1596 1597 1597 1597 1596 1596 1596 1595 1593 1593 1592 1592 1590 1588 1586 1584 1582
1531 1533 1536 1535 1538 1540 1541 1542 1545 1548 1550 1554 1558 1560 1562 1564 1568 1572 1576 1580 1581 1582 1584 1586 1588 1589 1589 1590 1591 1590 1590 1590 1590 1589 1588 1588 1587 1587 1586 1584 1582 1580 1578
1537 1536 1533 1531 1533 1534 1534 1536 1537 1539 1541 1544 1547 1550 1552 1555 1558 1562 1567 1570 1571 1572 1574 1576 1578 1580 1582 1583 1584 1583 1583 1583 1583 1583 1583 1582 1582 1582 1581 1579 1578 1577 1575
1534 1532 1531 1527 1527 1529 1529 1529 1529 1531 1533 1535 1537 1540 1542 1546 1549 1552 1556 1559 1560 1562 1564 1565 1567 1570 1573 1575 1575 1575 1574 1575 1576 1576 1576 1576 1575 1574 1575 1574 1573 1572 1571
1530 1530 1529 1523 1524 1526 1524 1523 1523 1524 1528 1528 1528 1531 1533 1536 1539 1542 1545 1547 1549 1551 1552 1553 1555 1558 1562 1564 1566 1566 1565 1569 1569 1567 1567 1567 1567 1566 1567 1566 1567 1566 1564
1527 1523 1522 1520 1526 1524 1519 1518 1518 1519 1520 1521 1521 1522 1523 1526 1529 1531 1533 1536 1539 1540 1541 1544 1545 1546 1549 1553 1555 1555 1558 1560 1559 1558 1558 1558 1559 1559 1560 1560 1559 1558 1557
1524 1523 1522 1521 1520 1523 1518 1513 1512 1514 1515 1513 1518 1515 1515 1516 1519 1522 1524 1526 1529 1530 1531 1532 1535 1537 1539 1541 1543 1545 1548 1548 1548 1549 1548 1548 1551 1552 1552 1552 1551 1550 1549
1518 1517 1517 1514 1513 1517 1514 1507 1507 1509 1508 1512 1511 1509 1506 1507 1509 1512 1514 1517 1520 1521 1522 1523 1525 1527 1528 1530 1533 1534 1536 1537 1538 1538 1539 1541 1541 1542 1542 1543 1543 1543 1542
1511 1510 1511 1511 1511 1505 1506 1504 1501 1502 1501 1503 1502 1502 1502 1498 1501 1504 1506 1508 1511 1513 1515 1516 1516 1516 1517 1519 1521 1522 1525 1526 1527 1529 1531 1531 1532 1533 1533 1534 1533 1534 1534
1504 1505 1504 1503 1503 1500 1499 1499 1494 1493 1493 1494 1493 1491 1488 1491 1493 1494 1496 1498 1500 1504 1505 1506 1506 1506 1507 1509 1511 1513 1514 1517 1518 1520 1521 1523 1523 1523 1524 1524 1524 1524 1524
1495 1496 1496 1496 1495 1493 1491 1490 1486 1487 1488 1489 1486 1483 1483 1482 1483 1485 1486 1489 1491 1494 1493 1494 1495 1497 1498 1500 1502 1504 1505 1508 1510 1511 1512 1513 1513 1513 1514 1515 1515 1514 1513
1486 1488 1488 1487 1486 1485 1484 1480 1480 1480 1477 1475 1477 1473 1471 1472 1474 1476 1478 1480 1482 1483 1484 1485 1487 1488 1491 1494 1495 1497 1499 1500 1502 1503 1503 1504 1504 1504 1505 1505 1505 1505 1505
1477 1478 1480 1480 1479 1477 1476 1475 1474 1468 1468 1466 1467 1466 1464 1467 1463 1466 1468 1471 1475 1475 1477 1479 1480 1482 1485 1487 1488 1490 1491 1492 1493 1494 1494 1495 1495 1496 1497 1497 1498 1498 1498
1471 1472 1472 1472 1471 1470 1469 1469 1467 1463 1465 1464 1462 1457 1456 1458 1458 1458 1460 1464 1467 1469 1470 1470 1472 1474 1477 1478 1480 1481 1482 1483 1485 1485 1485 1486 1487 1487 1488 1489 1490 1491 1492
1465 1465 1465 1465 1464 1462 1462 1462 1460 1459 1458 1457 1456 1452 1451 1451 1453 1454 1456 1459 1461 1459 1458 1461 1463 1466 1467 1469 1470 1471 1473 1475 1475 1475 1476 1477 1478 1477 1478 1479 1480 1481 1482
1457 1458 1457 1456 1456 1454 1455 1454 1452 1452 1451 1452 1449 1444 1443 1441 1441 1442 1447 1451 1450 1445 1449 1451 1452 1459 1457 1456 1458 1460 1463 1464 1465 1466 1467 1468 1468 1469 1470 1470 1470 1472 1474
1450 1450 1450 1449 1447 1446 1446 1446 1446 1447 1446 1445 1441 1435 1436 1436 1437 1439 1438 1440 1438 1438 1444 1445 1447 1447 1449 1448 1448 1451 1453 1455 1457 1458 1458 1459 1460 1460 1461 1462 1462 1463 1464
1442 1441 1441 1441 1440 1439 1438 1440 1441 1441 1440 1439 1432 1429 1430 1430 1431 1432 1432 1431 1432 1434 1437 1438 1437 1440 1442 1442 1444 1446 1448 1448 1450 1452 1452 1452 1452 1452 1453 1453 1452 1452 1454
1434 1433 1433 1433 1432 1432 1431 1432 1433 1432 1434 1432 1424 1425 1427 1426 1426 1426 1424 1426 1428 1428 1432 1432 1432 1434 1437 1438 1439 1442 1445 1446 1447 1446 1447 1450 1451 1450 1448 1447 1449 1450 1450
1429 1427 1426 1426 1426 1426 1426 1427 1426 1428 1427 1424 1420 1421 1423 1423 1422 1421 1423 1424 1426 1424 1425 1429 1430 1432 1435 1436 1437 1439 1442 1442 1444 1446 1447 1447 1447 1447 1445 1445 1447 1447 1446